Regional Weather Roundup
Issued by NWS

Home | Current Version | Previous Version | Text Only | Print | Product List | Glossary On
Versions: 1 2 3 4 5 6 7 8 9 10 11 12 13 14 15 16 17 18 19 20 21 22 23 24 25 26 27 28 29 30 31 32 33 34 35 36 37 38 39 40 41 42 43 44 45 46 47 48 49 50
000
ASUS44 KLIX 302011
RWRLA
LOUISIANA WEATHER ROUNDUP
NATIONAL WEATHER SERVICE NEW ORLEANS LA
300 PM CDT SAT MAY 30 2015

NOTE: "FAIR" INDICATES FEW OR NO CLOUDS BELOW 12,000 FEET WITH NO
      SIGNIFICANT WEATHER AND/OR OBSTRUCTIONS TO VISIBILITY.
      SKY/WX - SKY CONDITION AND SIGNIFICANT WEATHER.
      TMP - AIR TEMPERATURE.    DP   - DEWPOINT TEMPERATURE.
      RH  - RELATIVE HUMIDITY.  PRES - PRESSURE.
      HX  - HEAT INDEX.         WCI  - WIND CHILL INDEX.

*  THESE STATIONS ARE NOT NWS OR FAA STATIONS AND ARE NOT UNDER
   NWS QUALITY CONTROL.

LAZ040-048-061>063-065-066-069-302100-
SOUTHEAST LOUISIANA

CITY           SKY/WX    TMP DP  RH WIND       PRES   REMARKS
N.O. AUDUBON     N/A     78  74  90 MISG        N/A
N.O. INTL ARPT PTSUNNY   85  70  60 E10       30.03F
N.O. LAKEFRONT MOSUNNY   86  70  58 E13       30.04F
SLIDELL        MOSUNNY   85  71  63 SE8       30.03F
BATON ROUGE    PTSUNNY   86  68  54 CALM      30.00F
BOOTHVILLE     MOSUNNY   83  70  64 SE9       30.05F
BELLE CHASSE   PTSUNNY   84  70  61 SE13      30.03S THUNDER
BOGALUSA*        N/A     82  69  65 S10G18    30.05S
GALLIANO*      PTCLDY    85  71  64 SE5       30.03F
NEW ROADS*     FAIR      87  69  55 CALM      30.00F
GONZALES*      FAIR      88  67  50 SW5       30.00F
HAMMOND*       SUNNY     88  68  51 S9        30.04S
HOUMA*         PTSUNNY   81  72  74 NE9       30.04S
PORT FOURCHON* PTCLDY    82  72  69 SE14      30.04F

$$

LAZ041-044-053-054-302100-
SOUTHWEST LOUISIANA

CITY           SKY/WX    TMP DP  RH WIND       PRES   REMARKS
LAKE CHARLES   CLOUDY    80  70  71 NW6       30.02F
LAFAYETTE      TSTM      73  64  73 SE3       30.02F
PATTERSON      CLOUDY    79  73  83 NE14      30.03F
SALT POINT       N/A     85  73  67 VRB6      30.01F
NEW IBERIA     TSTM      81  73  76 NE16      30.02F
CHENAULT AIRPK NOT AVBL

$$

LAZ027-028-302100-
CENTRAL LOUISIANA

CITY           SKY/WX    TMP DP  RH WIND       PRES   REMARKS
FORT POLK      CLOUDY    73  71  93 SE7       30.03F
ALEXANDRIA INT RAIN      71  70  96 SW3       30.02S FOG
ALEXANDRIA     LGT RAIN  73  69  87 CALM      30.01F

$$

LAZ001-002-302100-
NORTHWEST LOUISIANA

CITY           SKY/WX    TMP DP  RH WIND       PRES   REMARKS
SHREVEPORT     PTSUNNY   78  68  71 S5        30.02R
BARKSDALE AFB  PTSUNNY   77  67  73 SE3       30.00F
DTN SHREVEPORT PTSUNNY   76  67  73 VRB3      30.01S

$$

LAZ014-016-302100-
NORTHEAST LOUISIANA

CITY           SKY/WX    TMP DP  RH WIND       PRES   REMARKS
MONROE         CLOUDY    72  32  23 CALM      30.03F
TALLULAH       TSTM      70  66  87 N6        30.02S FOG

$$



USA.gov is the U.S. government's official web portal to all federal, state and local government web resources and services.